Погода в Винах

Россия / Новгородская область     58°21′32″N   32°13′13″E
темп.,
°C
ветер,
м/с
пор.,
м/с
влажн.,
%
обл.,
%
осадки,
мм/ч
давл.,
гПа
погр.,
м
14 мая, пт
пт1400:00+11ююв397623 0.0 1012482
03:00+7ююв289812 0.0 1013209
06:00+8ююв38930 0.0 1013263
09:00+14ююв37625 0.0 1013817
12:00+14ююв496695 0.0 1013960
15:00+18ю475899 0.1 10121487
18:00+17юв377290 0.7 1011501
21:00+13вюв26905 1.3 1010110
15 мая, сб
сб1500:00+10вюв259456 0.0 101078
03:00+10в2596100 0.0 1009105
06:00+11в2796100 0.0 1008203
09:00+14вюв359095 0.1 1007300
12:00+19юв236443 0.1 10061089
15:00+19ююв227521 2.8 1005768
18:00+18ю36849 4.1 1004657
21:00+14ююз229529 4.8 100432
16 мая, вс
вс1600:00+12ю229639 0.1 100416
03:00+11ю239886 0.1 100452
06:00+11юз159955 1.0 1005182
09:00+14зюз2394100 3.1 1006358
12:00+17зюз237493 0.0 1008720
15:00+20зюз346169 0.6 10081289
18:00+18зюз357981 1.0 1009719
21:00+14юз239620 2.1 101043
17 мая, пн
пн1700:00+12ююз229533 0.0 101115
03:00+11ююв2297100 0.0 101225
06:00+12ююв24960 0.0 1012105
09:00+17ююв24816 0.0 1013399
12:00+22ююв4656100 0.0 10121595
15:00+23юв4648100 0.0 10101937
18:00+21вюв3860100 0.0 1008654
21:00+16вюв51588100 1.3 1006640
18 мая, вт
вт1800:00+17вюв51692100 1.3 1004596
03:00+17юв51394100 2.7 1003756
06:00+13юз4109576 0.9 1005534
09:00+15юз3586100 0.9 1007675
12:00+16юз3476100 0.2 1009856
15:00+19юз236491 0.3 10091245
18:00+18сз2268100 0.0 1009567
21:00+13зсз2279100 0.1 100915